Location: Roland
(31.1349°N, 85.4372°W)
Time: 03:25:29
(UTC+00:00)

Courier 1B - Pass Details

Date: 27 April 2021
Orbit: 962 x 1209 km, 28.3° (Epoch: 07 May)

Event Time Altitude Azimuth Distance (km) Brightness Sun altitude
Rises 16:21:08 0° 257° (WSW) 3,930 10.5 65.2°
Reaches altitude 10° 16:23:59 10° 255° (WSW) 2,935 10.0 65.7°
Maximum altitude 16:31:05 68° 174° (S) 1,112 9.9 66.8°
Drops below altitude 10° 16:37:45 10° 93° (E) 2,763 10.3 67.8°
Sets 16:40:22 0° 91° (E) 3,687 10.7 68.2°
